Location: Unspecified
(49.2170°N, 0.0000°E)
Time: 18:53:29
(UTC+00:00)

A-11 Canister half - Pass Details

Date: 26 January 2021
Orbit: 1516 x 1684 km, 47.2° (Epoch: 05 March)

Event Time Altitude Azimuth Distance (km) Brightness Sun altitude
Rises 18:10:31 0° 196° (SSW) 4,780 12.0 -13.6°
Reaches altitude 10° 18:14:19 10° 184° (S) 3,771 11.3 -14.2°
Maximum altitude 18:21:35 25° 134° (SE) 2,715 10.0 -15.3°
Enters shadow 18:25:44 19° 99° (E) 3,081 10.0 -16.0°
